Weather History for FAGG - February, 2013

Change the Weather History Date:

Thursday, February 21, 2013

  Actual Average Record
Temperature  
Mean Temperature 62 °F -  
Max Temperature 73 °F 73 °F 80 °F (2002)
Min Temperature 51 °F 58 °F 51 °F (2013)
Degree Days  
Heating Degree Days 3    
Growing Degree Days 12 (Base 50)    
Moisture  
Dew Point 51 °F    
Average Humidity 65    
Maximum Humidity 82    
Minimum Humidity 40    
Precipitation  
Precipitation 0.00 in - - ()
Sea Level Pressure  
Sea Level Pressure 30.05 in    
Wind  
Wind Speed 5 mph ()    
Max Wind Speed 13 mph    
Max Gust Speed -    
Visibility 13.0 miles    
Events      
Averages and records for this station are not official NWS values.
T = Trace of Precipitation, MM = Missing Value Source: Averaged Metar Reports

Daily Weather History Graph

Daily Weather History Graph

Search for Another Location

Airport or City:

Trip Planner

Search our weather history database for the weather conditions in past years. The results will help you decide how hot, cold, wet, or windy it might be!

Date:

Astronomy

Feb. 21, 2013 Rise Set
Actual Time 6:11 AM SAST 7:16 PM SAST
Civil Twilight 5:45 AM SAST 7:42 PM SAST
Nautical Twilight 5:14 AM SAST 8:12 PM SAST
Astronomical Twilight 4:42 AM SAST 8:44 PM SAST
Moon 4:14 PM SAST (2/21) 1:57 AM SAST (2/21)
Length of Visible Light 13h 56m
Length of Day
13h 05m
Waxing Gibbous, 81% of the Moon is Illuminated
Feb 21
Waxing Gibbous
Feb 25
Full
Mar 4
Last Quarter
Mar 11
New
Mar 19
First Quarter

Hourly Weather History & Observations

Time (SAST) Temp. Dew Point Humidity Pressure Visibility Wind Dir Wind Speed Gust Speed Precip Events Conditions
12:00 AM 55.4 °F 50.0 °F 82% 30.15 in - North 3.5 mph - N/A   Clear
1:00 AM 55.4 °F 50.0 °F 82% 30.15 in - North 3.5 mph - N/A   Clear
2:00 AM 54 °F 49 °F 77% 30.15 in 12 mi North 3.5 mph - -  
2:00 AM 53.6 °F 48.2 °F 82% 30.12 in - North 3.5 mph - N/A   Clear
3:00 AM 53.6 °F 48.2 °F 82% 30.12 in - North 3.5 mph - N/A   Clear
4:00 AM 53.6 °F 46.4 °F 77% 30.09 in - North 3.5 mph - N/A   Clear
5:00 AM 52 °F 46 °F 74% 30.09 in 19 mi NNE 4.6 mph - -  
5:00 AM 51.8 °F 46.4 °F 82% 30.06 in - North 4.6 mph - N/A   Clear
6:00 AM 53.6 °F 46.4 °F 77% 30.06 in - North 2.3 mph - N/A   Clear
7:00 AM 53.6 °F 46.4 °F 77% 30.06 in - Variable 2.3 mph - N/A   Clear
8:00 AM 62 °F 51 °F 59% 30.08 in 12 mi NNE 2.3 mph - -  
8:00 AM 60.8 °F 51.8 °F 72% 30.06 in - NNE 2.3 mph - N/A   Clear
9:00 AM 66.2 °F 48.2 °F 52% 30.06 in - East 4.6 mph - N/A   Clear
10:00 AM 69.8 °F 48.2 °F 46% 30.04 in - NE 3.5 mph - N/A   Clear
11:00 AM 71 °F 52 °F 40% 30.04 in 12 mi SE 9.2 mph - -  
11:00 AM 71.6 °F 51.8 °F 50% 30.04 in - SE 9.2 mph - N/A   Clear
12:00 PM 71.6 °F 53.6 °F 53% 30.01 in - SE 12.7 mph - N/A   Clear
1:00 PM 73.4 °F 53.6 °F 50% 29.98 in - SE 10.4 mph - N/A   Clear
2:00 PM 72 °F 56 °F 47% 30.01 in 12 mi ESE 10.4 mph - -  
2:00 PM 71.6 °F 53.6 °F 53% 29.98 in - SE 11.5 mph - N/A   Clear
3:00 PM 71.6 °F 53.6 °F 53% 29.98 in - SE 10.4 mph - N/A   Clear
4:00 PM 71.6 °F 55.4 °F 57% 29.98 in - ESE 8.1 mph - N/A   Clear
5:00 PM 71 °F 54 °F 44% 29.98 in 12 mi SE 9.2 mph - -  
5:00 PM 71.6 °F 53.6 °F 53% 29.98 in - SE 8.1 mph - N/A   Clear
6:00 PM 68.0 °F 53.6 °F 60% 29.98 in - SE 8.1 mph - N/A   Clear
7:00 PM 66.2 °F 53.6 °F 64% 30.01 in - SE 6.9 mph - N/A   Clear
8:00 PM 63 °F 54 °F 64% 30.02 in 12 mi East 2.3 mph - -  
8:00 PM 62.6 °F 53.6 °F 72% 30.01 in - East 3.5 mph - N/A   Clear
9:00 PM 60.8 °F 53.6 °F 77% 30.04 in - NNE 5.8 mph - N/A   Clear
10:00 PM 59.0 °F 53.6 °F 82% 30.04 in - NNW 3.5 mph - N/A   Clear
11:00 PM 57.2 °F 51.8 °F 82% 30.04 in - NW 4.6 mph - N/A   Clear